Weather observations for the past three days for
Salida - Monarch Pass
Imperial (Metric)
Date Time (mdt) Wind (mph) Vis. (mi.) Weather Sky Cond. Temperature (ºF) Relative Humidity Wind Chill (°F) Heat Index (°F) Pressure Precipitation (in)
Air Dwpt 6 hour altimeter (in) sea level (mb) 1 hr 3 hr 6 hr
Max. Min.
13 14:55 N 13 G 43 10.00 Fair CLR 64.4 19.4 18% 30.8 0.0
13 14:35 NW 25 G 35 10.00 Fair and Breezy CLR 64.4 19.4 18% 30.81 0.0
13 14:15 NW 26 G 33 10.00 Fair and Windy CLR 64.4 19.4 18% 30.81 0.0
13 13:55 W 25 G 44 10.00 Fair and Breezy CLR 64.4 17.6 16% 30.81 0.0
13 13:35 NW 30 G 44 10.00 Fair and Windy CLR 62.6 15.8 16% 30.81 0.0
13 13:15 NW 39 G 47 10.00 Fair and Windy CLR 62.6 17.6 17% 30.81 0.0
13 12:55 W 29 G 38 10.00 Fair and Windy CLR 62.6 19.4 19% 30.82 0.0
13 12:35 NW 30 G 36 10.00 Fair and Windy CLR 62.6 17.6 17% 30.82 0.0
13 12:15 W 25 G 31 10.00 Fair and Breezy CLR 60.8 19.4 20% 30.82 0.0
13 11:55 W 23 G 31 10.00 Fair and Breezy CLR 60.8 19.4 20% 30.82 0.0
13 11:35 W 23 G 29 10.00 Fair and Breezy CLR 60.8 19.4 20% 30.82 0.0
13 11:15 NW 24 G 29 10.00 Fair and Breezy CLR 59 19.4 21% 30.82 0.0
13 10:55 W 23 G 30 10.00 Fair and Breezy CLR 59 19.4 21% 30.82 0.0
13 10:35 NW 24 G 36 10.00 Fair and Breezy CLR 57.2 19.4 23% 30.81 0.0
13 10:15 W 21 G 32 10.00 Fair and Breezy CLR 55.4 21.2 26% 30.81 0.0
13 09:55 W 21 G 26 10.00 Fair and Breezy CLR 55.4 21.2 26% 30.81 0.0
13 09:35 W 21 G 28 10.00 Fair and Breezy CLR 55.4 21.2 26% 30.8 0.0
13 09:15 W 13 G 23 10.00 Fair CLR 53.6 21.2 28% 30.8 0.0
13 08:55 W 17 G 23 10.00 Fair CLR 53.6 19.4 26% 30.8 0.0
13 08:36 W 13 10.00 Fair CLR 53.6 21.2 28% 30.79 0.0
13 08:15 W 16 G 23 10.00 Fair CLR 51.8 21.2 30% 30.78 0.0
13 07:55 W 15 10.00 Fair CLR 51.8 21.2 30% 30.78 0.0
13 07:36 W 14 10.00 Fair CLR 51.8 21.2 30% 30.78 0.0
13 07:15 W 15 10.00 Fair CLR 50 21.2 32% 45 30.77 0.0
13 06:55 W 17 10.00 Fair CLR 51.8 21.2 30% 30.76 0.0
13 06:35 W 17 10.00 Fair CLR 51.8 21.2 30% 30.76 0.0
13 06:15 W 18 10.00 Fair CLR 50 21.2 32% 44 30.75 0.0
13 05:55 W 20 10.00 Fair CLR 51.8 21.2 30% 30.74 0.0
13 05:35 W 17 10.00 Fair CLR 50 21.2 32% 45 30.74 0.0
13 05:15 W 17 10.00 Fair CLR 50 21.2 32% 45 30.73 0.0
13 04:55 W 17 10.00 Fair CLR 50 23 35% 45 30.73 0.0
13 04:35 W 20 10.00 Fair CLR 51.8 21.2 30% 30.73 0.0
13 04:15 W 20 10.00 Fair CLR 51.8 21.2 30% 30.73 0.0
13 03:55 W 17 10.00 Fair CLR 51.8 23 32% 30.73 0.0
13 03:35 W 17 10.00 Fair CLR 51.8 23 32% 30.73 0.0
13 03:15 W 16 10.00 Fair CLR 51.8 23 32% 30.74 0.0
13 02:55 W 16 10.00 Fair CLR 51.8 23 32% 30.74 0.0
13 02:35 W 15 10.00 Fair CLR 51.8 23 32% 30.74 0.0
13 02:15 W 15 10.00 Fair CLR 51.8 23 32% 30.74 0.0
13 01:55 W 13 10.00 Fair CLR 51.8 23 32% 30.74 0.0
13 01:35 W 13 10.00 Fair CLR 51.8 23 32% 30.74 0.0
13 01:15 W 14 10.00 Fair CLR 53.6 23 30% 30.74 0.0
13 00:55 W 15 10.00 Fair CLR 53.6 23 30% 30.75 0.0
13 00:35 W 15 10.00 Fair CLR 53.6 23 30% 30.76 0.0
13 00:15 W 13 10.00 Fair CLR 53.6 24.8 33% 30.76 0.0
12 23:55 W 16 10.00 Fair CLR 53.6 24.8 33% 30.76 0.0
12 23:35 NW 15 10.00 Fair CLR 53.6 23 30% 30.77 0.0
12 23:15 NW 12 10.00 Fair CLR 53.6 24.8 33% 30.77 0.0
12 22:55 W 12 10.00 Fair CLR 53.6 24.8 33% 30.77 0.0
12 22:35 W 12 10.00 Fair CLR 53.6 24.8 33% 30.77 0.0
12 22:15 W 13 10.00 Partly Cloudy SCT090 55.4 24.8 31% 30.77 0.0
12 21:55 W 20 10.00 Partly Cloudy SCT100 55.4 24.8 31% 30.77 0.0
12 21:35 W 13 10.00 Partly Cloudy SCT100 55.4 26.6 33% 30.77 0.0
12 21:15 NW 17 10.00 Fair CLR 55.4 24.8 31% 30.76 0.0
12 20:55 NW 17 10.00 Fair CLR 55.4 24.8 31% 30.75 0.0
12 20:35 NW 17 10.00 Fair CLR 57.2 24.8 29% 30.74 0.0
12 20:15 NW 20 G 26 10.00 Fair CLR 59 23 25% 30.74 0.0
12 19:55 NW 21 G 26 10.00 Fair and Breezy CLR 60.8 24.8 25% 30.74 0.0
12 19:35 W 21 G 30 10.00 Fair and Breezy CLR 60.8 26.6 27% 30.74 0.0
12 19:15 NW 24 G 31 10.00 Fair and Breezy CLR 62.6 26.6 25% 30.74 0.0
12 18:55 NW 21 G 29 10.00 Fair and Breezy CLR 62.6 26.6 25% 30.74 0.0
12 18:35 W 26 G 33 10.00 Fair and Windy CLR 62.6 23 22% 30.73 0.0
12 18:15 NW 29 G 39 10.00 Fair and Windy CLR 62.6 23 22% 30.73 0.0
12 17:55 NW 29 G 38 10.00 Fair and Windy CLR 62.6 23 22% 30.73 0.0
12 17:35 NW 21 G 33 10.00 Partly Cloudy and Breezy SCT080 SCT110 64.4 26.6 24% 30.74 0.0
12 17:15 NW 16 G 29 10.00 Mostly Cloudy SCT090 BKN110 64.4 28.4 26% 30.74 0.0
12 16:55 NW 15 G 31 10.00 Mostly Cloudy SCT090 BKN110 62.6 26.6 25% 30.74 0.0
12 16:35 NW 37 G 43 10.00 Partly Cloudy and Windy SCT090 SCT110 64.4 26.6 24% 30.74 0.0
12 16:15 W 33 G 40 10.00 Fair and Windy CLR 64.4 26.6 24% 30.74 0.0
12 15:55 NW 28 G 43 10.00 Fair and Windy CLR 64.4 26.6 24% 30.74 0.0
12 15:35 W 38 G 44 10.00 Partly Cloudy and Windy SCT100 64.4 26.6 24% 30.74 0.0
12 15:15 NW 22 G 39 10.00 Partly Cloudy and Breezy SCT110 62.6 30.2 30% 30.75 0.0
12 14:55 W 30 G 38 10.00 Partly Cloudy and Windy SCT070 SCT110 64.4 28.4 26% 30.75 0.0
12 14:35 W 23 G 36 10.00 Partly Cloudy and Breezy SCT080 SCT100 62.6 30.2 30% 30.76 0.0
12 14:15 W 26 G 38 10.00 Partly Cloudy and Windy SCT070 SCT100 62.6 30.2 30% 30.76 0.0
12 13:55 W 17 G 38 10.00 Fair CLR 60.8 30.2 31% 30.77 0.0
12 13:35 W 37 G 41 10.00 Partly Cloudy and Windy SCT100 SCT120 62.6 30.2 30% 30.76 0.0
12 13:15 SW 18 G 37 10.00 Partly Cloudy SCT100 60.8 30.2 31% 30.77 0.0
12 12:55 W 33 G 43 10.00 Partly Cloudy and Windy SCT100 60.8 28.4 29% 30.76 0.0
12 12:35 NW 25 G 36 10.00 Fair and Breezy CLR 60.8 30.2 31% 30.77 0.0
12 12:15 W 29 G 36 10.00 Fair and Windy CLR 60.8 30.2 31% 30.78 0.0
12 11:55 NW 23 G 36 10.00 Fair and Breezy CLR 59 30.2 34% 30.78 0.0
12 11:35 W 22 G 36 10.00 Fair and Breezy CLR 59 32 36% 30.77 0.0
12 11:15 W 17 G 31 10.00 Fair CLR 57.2 32 39% 30.77 0.0
12 10:55 W 22 G 28 10.00 Fair and Breezy CLR 55.4 32 41% 30.77 0.0
12 10:35 W 13 G 26 10.00 Fair CLR 55.4 32 41% 30.77 0.0
12 10:15 W 15 G 26 10.00 Fair CLR 53.6 32 44% 30.77 0.0
12 09:55 W 20 G 24 10.00 Fair CLR 53.6 32 44% 30.76 0.0
12 09:35 W 16 10.00 Fair CLR 53.6 32 44% 30.76 0.0
12 09:15 W 12 10.00 Fair CLR 51.8 32 47% 30.75 0.0
12 08:55 SW 15 10.00 Fair CLR 51.8 30.2 44% 30.74 0.0
12 08:35 W 13 10.00 Fair CLR 50 30.2 47% 46 30.74 0.0
12 08:15 SW 13 10.00 Fair CLR 48.2 30.2 50% 43 30.74 0.0
12 07:55 W 14 10.00 Fair CLR 46.4 30.2 53% 41 30.73 0.0
12 07:35 W 14 10.00 Fair CLR 46.4 30.2 53% 41 30.73 0.0
12 07:15 SW 15 10.00 Fair CLR 44.6 28.4 53% 38 30.72 0.0
12 06:55 SW 15 G 20 10.00 Fair CLR 44.6 28.4 53% 38 30.72 0.0
12 06:35 W 14 10.00 Fair CLR 44.6 30.2 57% 39 30.71 0.0
12 06:15 W 16 10.00 Fair CLR 44.6 30.2 57% 38 30.7 0.0
12 05:55 W 16 10.00 Fair CLR 44.6 30.2 57% 38 30.69 0.0
12 05:35 W 16 10.00 Fair CLR 44.6 30.2 57% 38 30.69 0.0
12 05:15 W 17 10.00 Fair CLR 44.6 30.2 57% 38 30.69 0.0
12 04:55 W 17 10.00 Fair CLR 44.6 30.2 57% 38 30.69 0.0
12 04:35 W 18 10.00 Fair CLR 44.6 30.2 57% 37 30.69 0.0
12 04:15 W 21 G 24 10.00 Fair and Breezy CLR 44.6 30.2 57% 37 30.69 0.0
12 03:55 W 18 10.00 Fair CLR 44.6 30.2 57% 37 30.69 0.0
12 03:35 W 17 10.00 Fair CLR 44.6 30.2 57% 38 30.69 0.0
12 03:15 W 18 10.00 Fair CLR 44.6 30.2 57% 37 30.69 0.0
12 02:55 W 17 10.00 Fair CLR 46.4 30.2 53% 40 30.69 0.0
12 02:35 W 17 10.00 Fair CLR 46.4 30.2 53% 40 30.69 0.0
12 02:15 W 18 10.00 Fair CLR 46.4 30.2 53% 40 30.69 0.0
12 01:55 W 17 10.00 Fair CLR 46.4 30.2 53% 40 30.69 0.0
12 01:35 W 16 10.00 Fair CLR 46.4 30.2 53% 40 30.69 0.0
12 01:15 W 14 10.00 Fair CLR 48.2 30.2 50% 43 30.69 0.0
12 00:56 W 17 10.00 Fair CLR 48.2 30.2 50% 42 30.69 0.0
12 00:35 W 15 10.00 Fair CLR 48.2 30.2 50% 43 30.71 0.0
12 00:15 W 16 10.00 Fair CLR 48.2 30.2 50% 43 30.71 0.0
11 23:55 W 17 10.00 Fair CLR 50 30.2 47% 45 30.71 0.0
11 23:35 W 16 10.00 Fair CLR 50 28.4 43% 45 30.71 0.0
11 23:15 W 17 10.00 Fair CLR 50 26.6 40% 45 30.71 0.0
11 22:55 W 17 10.00 Fair CLR 50 26.6 40% 45 30.71 0.0
11 22:35 W 17 G 22 10.00 Fair CLR 50 26.6 40% 45 30.71 0.0
11 22:15 N 16 G 21 10.00 Fair CLR 51.8 26.6 38% 30.71 0.0
11 21:55 N 13 10.00 Fair CLR 51.8 26.6 38% 30.7 0.0
11 21:35 NW 12 G 16 10.00 Fair CLR 51.8 26.6 38% 30.69 0.0
11 21:15 NW 12 10.00 Fair CLR 51.8 26.6 38% 30.69 0.0
11 20:55 NW 16 10.00 Fair CLR 51.8 26.6 38% 30.67 0.0
11 20:35 NW 15 10.00 Fair CLR 53.6 28.4 38% 30.67 0.0
11 20:15 NW 12 10.00 Fair CLR 55.4 28.4 36% 30.66 0.0
11 19:35 NW 16 G 23 10.00 Fair CLR 57.2 28.4 33% 30.66 0.0
11 19:15 NW 18 G 24 10.00 Fair CLR 59 28.4 31% 30.66 0.0
11 18:55 W 22 G 31 10.00 Partly Cloudy and Breezy SCT090 SCT100 59 30.2 34% 30.65 0.0
11 18:35 NW 18 G 33 10.00 Overcast SCT065 OVC090 60.8 32 34% 30.65 0.0
11 18:15 NW 24 G 35 10.00 Overcast and Breezy SCT060 SCT075 OVC090 57.2 30.2 36% 30.64 0.0
11 17:55 NW 29 G 33 10.00 Overcast and Windy SCT060 BKN075 OVC100 60.8 30.2 31% 30.64 0.0
11 17:35 W 32 G 36 10.00 Overcast and Windy SCT040 BKN080 OVC095 60.8 30.2 31% 30.64 0.0
11 17:15 W 18 G 31 10.00 Overcast SCT070 BKN080 OVC100 59 28.4 31% 30.64 0.0
11 16:55 W 24 G 36 10.00 Mostly Cloudy and Breezy BKN100 BKN120 60.8 32 34% 30.65 0.0
11 16:35 W 28 G 38 10.00 Mostly Cloudy and Windy BKN100 60.8 32 34% 30.65 0.0
11 16:15 NW 23 G 30 10.00 Mostly Cloudy and Breezy SCT065 BKN100 60.8 32 34% 30.65 0.0
11 15:55 NW 24 G 32 10.00 Mostly Cloudy and Breezy SCT090 BKN110 59 30.2 34% 30.66 0.0
11 15:35 W 26 G 37 10.00 Partly Cloudy and Windy SCT090 SCT110 59 32 36% 30.66 0.0
11 15:15 NW 26 G 33 10.00 Mostly Cloudy and Windy SCT050 SCT065 BKN085 53.6 33.8 47% 30.66 0.0
11 14:55 W 20 G 31 10.00 Partly Cloudy SCT060 SCT065 59 32 36% 30.66 0.0
11 14:35 W 23 G 37 10.00 Fair and Breezy CLR 59 33.8 39% 30.66 0.0
11 14:15 W 21 G 26 10.00 Fair and Breezy CLR 59 35.6 42% 30.67 0.0
11 13:55 W 16 G 31 10.00 Fair CLR 57.2 35.6 44% 30.68 0.0
11 13:35 W 24 G 33 10.00 Fair and Breezy CLR 57.2 35.6 44% 30.68 0.0
11 13:15 W 21 G 28 10.00 Fair and Breezy CLR 55.4 35.6 47% 30.69 0.0
11 12:55 W 23 G 33 10.00 Fair and Breezy CLR 55.4 35.6 47% 30.69 0.0
11 12:35 NW 24 G 32 10.00 Fair and Breezy CLR 53.6 33.8 47% 30.69 0.0
11 12:15 W 21 G 30 10.00 Partly Cloudy and Breezy SCT037 53.6 35.6 51% 30.69 0.0
11 11:55 NW 10 G 22 10.00 Partly Cloudy SCT037 53.6 33.8 47% 30.69 0.0
11 11:35 W 16 G 22 10.00 Fair CLR 53.6 39.2 58% 30.69 0.0
11 11:22 W 14 G 21 10.00 Fair CLR 53.6 39.2 58% 30.7 0.0
11 11:15 W 13 G 22 10.00 Fair CLR 51.8 37.4 58% 30.69 0.0
11 10:35 W 12 G 17 10.00 Fair CLR 50 37.4 62% 46 30.69 0.0
11 10:16 W 14 G 22 10.00 Fair CLR 50 37.4 62% 45 30.69 0.0
11 09:55 W 14 G 20 10.00 Fair CLR 48.2 35.6 62% 43 30.69 0.0
11 09:35 W 14 G 17 10.00 Fair CLR 48.2 35.6 62% 43 30.69 0.0
11 09:15 W 12 10.00 Fair CLR 48.2 33.8 58% 44 30.69 0.0
11 08:55 NW 7 10.00 Fair CLR 46.4 33.8 62% 43 30.69 0.0
11 08:39 NW 12 10.00 Fair CLR 46.4 33.8 62% 42 30.69 0.0
11 08:15 NW 10 G 16 10.00 Fair CLR 44.6 32 61% 40 30.68 0.0
11 07:55 NW 10 10.00 Fair CLR 44.6 32 61% 40 30.68 0.0
11 07:35 NW 9 10.00 Fair CLR 44.6 32 61% 40 30.67 0.0
11 07:15 NW 9 10.00 Fair CLR 42.8 32 66% 38 30.67 0.0
11 06:55 NW 10 10.00 Fair CLR 42.8 32 66% 38 30.66 0.0
11 06:35 NW 14 10.00 Fair CLR 42.8 32 66% 36 30.66 0.0
11 06:15 NW 14 10.00 Fair CLR 42.8 32 66% 36 30.65 0.0
11 05:55 NW 14 10.00 Fair CLR 42.8 32 66% 36 30.65 0.0
11 05:35 NW 10 10.00 Fair CLR 42.8 32 66% 38 30.65 0.0
11 05:15 NW 8 10.00 Partly Cloudy SCT100 42.8 32 66% 39 30.65 0.0
11 04:35 NW 12 10.00 Mostly Cloudy BKN100 42.8 32 66% 37 30.64 0.0
11 04:15 NW 15 10.00 Overcast OVC100 42.8 32 66% 36 30.64 0.0
11 03:55 NW 18 10.00 Overcast OVC100 42.8 32 66% 35 30.64 0.0
11 03:35 NW 16 10.00 Overcast OVC100 42.8 32 66% 36 30.64 0.0
11 03:15 NW 14 10.00 Mostly Cloudy BKN100 42.8 32 66% 36 30.64 0.0
11 02:55 NW 13 10.00 Overcast OVC100 42.8 32 66% 37 30.64 0.0
11 02:35 N 6 10.00 Overcast OVC090 44.6 32 61% 42 30.65 0.0
11 02:15 N 8 10.00 Overcast OVC090 46.4 32 57% 43 30.65 0.0
11 01:55 N 9 10.00 Overcast OVC090 44.6 32 61% 40 30.65 0.0
11 01:35 NW 3 10.00 Overcast SCT075 OVC080 44.6 33.8 66% 30.65 0.0
11 01:15 NW 10 10.00 Overcast BKN075 OVC085 42.8 32 66% 38 30.65 0.0
11 00:55 NW 16 10.00 Mostly Cloudy SCT070 BKN085 41 33.8 76% 33 30.65 0.0
11 00:35 NW 17 10.00 Mostly Cloudy BKN070 BKN100 41 35.6 81% 33 30.64 0.0
11 00:15 W 14 G 17 10.00 Fair CLR 42.8 33.8 71% 36 30.64 0.0
10 23:55 W 12 10.00 Fair CLR 39.2 35.6 87% 33 30.65 0.0
10 23:35 W 16 10.00 Partly Cloudy SCT100 41 35.6 81% 33 30.64 0.0
10 23:15 W 16 10.00 Partly Cloudy SCT100 41 35.6 81% 33 30.64 0.0
10 22:35 W 13 10.00 Overcast OVC095 42.8 35.6 76% 37 30.65 0.0
10 22:15 W 8 10.00 Overcast OVC085 42.8 35.6 76% 39 30.65 0.0
10 21:55 N 6 10.00 Overcast OVC075 44.6 33.8 66% 42 30.64 0.0
10 21:35 Calm 10.00 Overcast OVC075 42.8 33.8 71% 30.64 0.0
10 21:15 SE 6 10.00 Mostly Cloudy BKN075 41 35.6 81% 38 30.62 0.0
10 20:55 Calm 10.00 Partly Cloudy SCT085 41 37.4 87% 30.62 0.0
10 20:35 E 7 10.00 Partly Cloudy SCT070 SCT085 SCT110 39.2 37.4 93% 35 30.62 0.0
10 20:15 E 8 10.00 Overcast SCT028 BKN070 OVC080 39.2 37.4 93% 34 30.62 0.0
10 19:55 E 8 0.25 Fog BKN002 BKN011 OVC029 39.2 37.4 93% 34 30.64 0.0
10 19:35 E 10 0.15 Fog OVC002 39.2 39.2 100% 33 30.63 0.0
10 19:15 E 9 3.00 Rain SCT002 BKN015 OVC027 39.2 37.4 93% 34 30.63 0.0
10 18:55 NE 3 3.00 Heavy Rain SCT006 BKN012 OVC032 41 37.4 87% 30.63 0.0
10 18:35 E 10 G 26 10.00 Overcast SCT032 BKN042 OVC050 42.8 35.6 76% 38 30.61 0.0
10 18:15 E 18 10.00 Light Rain SCT016 BKN042 OVC048 44.6 35.6 71% 37 30.58 0.0
10 17:55 E 15 10.00 Drizzle SCT034 BKN042 OVC080 46.4 35.6 66% 41 30.58 0.0
10 17:35 NW 8 10.00 Overcast SCT070 BKN080 OVC110 50 35.6 58% 47 30.58 0.0
10 17:15 NW 13 10.00 Mostly Cloudy BKN100 BKN120 50 33.8 54% 46 30.58 0.0
10 16:55 Calm 10.00 Partly Cloudy SCT075 SCT095 50 32 50% 30.58 0.0
10 16:35 E 8 10.00 Mostly Cloudy BKN075 BKN085 46.4 32 57% 43 30.58 0.0
10 16:15 E 10 10.00 Overcast SCT047 SCT055 OVC065 46.4 32 57% 42 30.58 0.0
10 15:55 E 15 10.00 Overcast SCT033 BKN047 OVC055 46.4 32 57% 41 30.59 0.0
10 15:35 NE 17 G 24 10.00 Overcast SCT034 BKN043 OVC049 44.6 32 61% 38 30.59 0.0
Date Time (mdt) Wind (mph) Vis. (mi.) Weather Sky Cond. Air Dwpt Max. Min. Relative Humidity Wind Chill (°F) Heat Index (°F) altimeter (in) sea level (mb) 1 hr 3 hr 6 hr
6 hour
Temperature (ºF) Pressure Precipitation (in)